Voltar ao catálogo

METEOR 2-19

AtivoMeteoPO
NORAD 20670·PAYLOAD·🇷🇺 Russia

Lançado Jun 27, 1990 de Plesetsk Cosmodrome

Loading…

Próximas Passagens (próximas 24 horas)

TLE

AtualizadoSource: Space-Track

Época: Sep 14, 2026, 14:58 UTC

1 20670U 90057A   26257.62420017  .00000038  00000-0  20261-4 0  9996
2 20670  82.5470 207.6805 0015634 185.2572 174.8428 13.84901714830014

Acompanhe METEOR 2-19 em tempo real com AllMySat

Download on the App Store